sat.trackr.live / text

‹ back to catalog

STARLINK-33778

NORAD 63877 · 2025-094P

PAYLOAD ACTIVE UNKNOWN

§ Identity

Operator
Country
US
Launch date
2025-05-10
Launch site
AFWTR
Launch vehicle
Mass (kg)
RCS (m²)

Purposes: comms

External: N2YO · Heavens-Above · Gunter

§ Orbital elements

Epoch: 2026-09-20T17:36:57.673440Z

Period
94.14 min
Inclination
70.0000°
Eccentricity
0.0002089
Mean motion
15.29606977 rev/d
Perigee alt
475.6 km
Apogee alt
478.4 km
Semi-major
6,855.1 km
B*
5.9253e-4
RAAN
100.4995°
Arg perigee
274.1295°
Mean anomaly
85.9642°
Rev number
7,647

§ Raw data

STARLINK-337781 63877U 25094P   26263.73400085  .00016957  00000+0  59253-3 0  99912 63877  70.0000 100.4995 0002089 274.1295  85.9642 15.29606977 76477

JSON: /api/v1/satellites/63877 · /tle

For live sub-satellite position, see the globe view (requires WebGL).

§ Visibility from observer

Set your observer location to see the next 7 days of passes ≥ 10°. The values pass through the URL so the page stays shareable.

No JS? Fill the form by hand. The geolocation button needs JavaScript.